Location: Balmoral
(33.0667°S, 151.5833°E)
Time: 01:35:01
(UTC+00:00)

SEDSat Delta rocket - Pass Details

Date: 18 September 2020
Orbit: 533 x 1000 km, 31.4° (Epoch: 21 October)

Event Time Altitude Azimuth Distance (km) Brightness Sun altitude
Exits shadow 18:47:53 20° 274° (W) 1,572 4.5 -13.3°
Maximum altitude 18:51:22 74° 356° (N) 763 3.4 -12.5°
Drops below altitude 10° 18:57:02 10° 81° (E) 2,401 7.4 -11.4°
Sets 18:59:44 0° 82° (E) 3,412 8.7 -10.8°
